Regional Weather Roundup
Issued by NWS

Home | Current Version | Previous Version | Text Only | Print | Product List | Glossary On
Versions: 1 2 3 4 5 6 7 8 9 10 11 12 13 14 15 16 17 18 19 20 21 22 23 24 25 26 27 28 29 30 31 32 33 34 35 36 37 38 39 40 41 42 43 44 45 46 47 48 49 50
000
ASUS44 KBMX 260510
RWRAL

ALABAMA REGIONAL WEATHER ROUNDUP
NATIONAL WEATHER SERVICE BIRMINGHAM AL
1200 AM CDT SUN APR 26 2015

NOTE: "FAIR" INDICATES FEW OR NO CLOUDS BELOW 12,000 FEET
WITH NO SIGNIFICANT WEATHER AND/OR OBSTRUCTIONS TO VISIBILITY.

THE REMARK "TC" DENOTES TEMPERATURE IN DEGREES CELSIUS.

ALZ001>011-014-016>018-020-260600-
NORTH ALABAMA

CITY           SKY/WX    TMP DP  RH WIND       PRES   REMARKS
MUSCLE SHOALS  CLEAR     71  66  84 SW9       29.64R
HUNTSVILLE     LGT RAIN  71  67  87 W6        29.64R
DECATUR        LGT RAIN  70  68  93 N9        29.63S
HALEYVILLE       N/A     68  68 100 SW5       29.69R
GADSDEN        MOCLDY   N/A N/A N/A W6        29.65R VSB 1/2
$$

ALZ012-013-022-023-030>036-040>044-260600-
WEST CENTRAL ALABAMA

CITY           SKY/WX    TMP DP  RH WIND       PRES   REMARKS
TUSCALOOSA     CLEAR     66  63  90 S3        29.67S
$$

ALZ015-024>027-033>036-040>044-260600-
CENTRAL ALABAMA

CITY           SKY/WX    TMP DP  RH WIND       PRES   REMARKS
BIRMINGHAM     CLEAR     68  65  90 SW7       29.69R
MONTGOMERY     CLEAR     66  62  87 SW3       29.70S
SHELBY CO ARPT CLEAR     66  63  90 SW5       29.69R
MAXWELL AFB    CLEAR     64  63  96 S3        29.69
GREENVILLE     FAIR      64  62  93 SW5       29.72S FOG
$$

ALZ019-021-028-029-037-038-045>048-260600-
EAST CENTRAL ALABAMA

CITY           SKY/WX    TMP DP  RH WIND       PRES   REMARKS
ANNISTON       CLEAR     64  62  93 W6        29.68R
ALEXANDER CITY CLEAR     64  60  85 CALM      29.70R
AUBURN         NOT AVBL
$$

ALZ051>064-260600-
SOUTHWEST ALABAMA

CITY           SKY/WX    TMP DP  RH WIND       PRES   REMARKS
MOBILE         CLEAR     67  64  90 W5        29.76S
BROOKLEY FIELD CLEAR     66  64  93 CALM      29.77R
EVERGREEN      CLEAR     63  63 100 S3        29.74R
$$

ALZ049-050-065>069-260600-
SOUTHEAST ALABAMA

CITY           SKY/WX    TMP DP  RH WIND       PRES   REMARKS
DOTHAN         CLEAR     66  65  96 SW8       29.76R
OZARK          CLEAR     65  62  89 SW6       29.73F
TROY           CLOUDY    65  64  97 SW7       29.73R FOG
EUFAULA        FAIR      65  63  93 SW3       29.70F
$$


USA.gov is the U.S. government's official web portal to all federal, state and local government web resources and services.